• Join FlightAware (Why Join?)
  • Login
  • US Flag GB Flag 
20:54 EDT


 

Airport Tracker/Info


-or-


 

Live Flight TrackerFlight Track Log ✈ DAL268 ✈ 11-Jul-2013 ✈ KSFO - KJFK

Flight Track Log - Related Links

Times and Time Zones

All times are in EDT time to prevent confusion due to time zone crossing. See the DAL268 flight status page for this flight to view local times or setup timezone preferences in your user account.

Time Position Orientation Groundspeed Altitude Reporting Facility
EDT Latitude Longitude Course Direction KTS MPH feet Rate Location/Type
14:43 37.6150 -122.3820 North 13 15  Level FlightAware
14:44 37.6150 -122.3810 90° East 15 17  Level FlightAware
14:47 37.8277 -122.1556 38° Northeast  Level FlightAware Approximate
14:48 37.9234 -122.0600 38° Northeast  Level FlightAware Approximate
14:48 37.6150 -122.3810 38° Northeast 2 2  Level FlightAware
14:50 37.7912 -122.1922 38° Northeast  Level FlightAware Approximate
14:50 37.6140 -122.3810 38° Northeast 20 23  Level FlightAware
14:52 37.6110 -122.3830 208° Southwest 22 25  Level FlightAware
14:52 37.6100 -122.3840 218° Southwest 24 28  Level FlightAware
14:53 37.6090 -122.3840 180° South 22 25  Level FlightAware
14:53 37.6080 -122.3850 218° Southwest 27 31  Level FlightAware
14:54 37.6070 -122.3840 142° Southeast 27 31  Level FlightAware
14:56 37.7976 -122.1858 38° Northeast  Level FlightAware Approximate
14:57 37.8932 -122.0901 38° Northeast  Level FlightAware Approximate
14:58 37.9833 -121.9909 90° East  Level FlightAware Approximate
14:59 38.0788 -121.8998 35° Northeast  Level FlightAware Approximate
15:00 38.1764 -121.8070 38° Northeast  Level FlightAware Approximate
15:01 38.2722 -121.7111 38° Northeast  Level FlightAware Approximate
15:02 38.3682 -121.6152 38° Northeast  Level FlightAware Approximate
15:03 38.4544 -121.5079 57° Northeast  Level FlightAware Approximate
15:04 38.5251 -121.3860 52° Northeast  Level FlightAware Approximate
15:05 38.5955 -121.2590 57° Northeast  Level FlightAware Approximate
15:06 38.6671 -121.1328 52° Northeast  Level FlightAware Approximate
15:07 38.7414 -121.0089 52° Northeast  Level FlightAware Approximate
15:08 38.8190 -120.8883 49° Northeast  Level FlightAware Approximate
15:09 38.8919 -120.7629 54° Northeast  Level FlightAware Approximate
15:09 37.6060 -122.3810 38° Northeast 28 32  Level FlightAware
15:09 37.6070 -122.3810 360° North 2 2 60 Level FlightAware
15:12 37.8055 -122.1778 38° Northeast  Level FlightAware Approximate
15:12 37.6110 -122.3780 38° Northeast 98 113  Level FlightAware
15:12 37.6258 -122.3680 28° Northeast 180 207 200 1,260 Climbing FlightAware ADS-B
15:12 37.6332 -122.3630 28° Northeast 180 207 700 3,000 Climbing FlightAware ADS-B
15:12 37.6376 -122.3590 36° Northeast 183 211 1,000 2,760 Climbing FlightAware ADS-B
15:12 37.6420 -122.3540 42° Northeast 187 215 1,300 2,280 Climbing FlightAware ADS-B
15:13 37.6504 -122.3430 46° Northeast 195 224 1,800 1,620 Climbing FlightAware ADS-B
15:13 37.6640 -122.3260 45° Northeast 221 254 2,200 1,500 Climbing FlightAware ADS-B
15:13 37.6763 -122.3110 44° Northeast 238 274 2,700 1,500 Climbing FlightAware ADS-B
15:14 37.6909 -122.2920 46° Northeast 260 299 3,100 1,920 Climbing FlightAware ADS-B
15:14 37.7153 -122.2600 46° Northeast 278 320 4,200 2,520 Climbing FlightAware ADS-B
15:14 37.7413 -122.2320 40° Northeast 279 321 5,400 2,640 Climbing FlightAware ADS-B
15:15 37.7644 -122.2090 38° Northeast 287 330 6,400 2,520 Climbing FlightAware ADS-B
15:15 37.7812 -122.1930 37° Northeast 291 335 7,000 2,460 Climbing FlightAware ADS-B
15:15 37.7975 -122.1780 36° Northeast 293 337 7,700 2,460 Climbing FlightAware ADS-B
15:16 37.8148 -122.1610 38° Northeast 295 339 8,300 2,400 Climbing FlightAware ADS-B
15:16 37.8323 -122.1440 37° Northeast 298 343 9,000 2,580 Climbing FlightAware ADS-B
15:16 37.8508 -122.1260 38° Northeast 299 344 9,700 2,040 Climbing FlightAware ADS-B
15:17 37.8873 -122.0910 37° Northeast 320 368 10,700 1,380 Climbing FlightAware ADS-B
15:17 37.9272 -122.0530 37° Northeast 351 404 11,200 1,140 Climbing FlightAware ADS-B
15:18 37.9757 -122.0060 37° Northeast 377 434 12,000 1,620 Climbing FlightAware ADS-B
15:18 38.0241 -121.9600 37° Northeast 392 451 13,100 1,380 Climbing FlightAware ADS-B
15:19 38.0799 -121.9060 37° Northeast 422 486 13,700 1,320 Climbing FlightAware ADS-B
15:20 38.1780 -121.8100 38° Northeast 447 514 15,300 1,500 Climbing FlightAware
15:21 38.2360 -121.7510 39° Northeast 459 528 16,200 1,560 Climbing FlightAware
15:21 38.2860 -121.6640 54° Northeast 470 541 17,300 1,620 Climbing FlightAware
15:22 38.3410 -121.5600 56° Northeast 479 551 18,500 1,920 Climbing FlightAware
15:23 38.3870 -121.4760 55° Northeast 476 548 19,900 1,920 Climbing FlightAware
15:23 38.4460 -121.3720 54° Northeast 483 556 21,200 1,500 Climbing FlightAware
15:24 38.5000 -121.2760 54° Northeast 493 567 22,100 1,380 Climbing FlightAware
15:25 38.5610 -121.1680 54° Northeast 500 575 23,200 1,260 Climbing FlightAware
15:26 38.6030 -121.0680 62° Northeast 509 586 23,900 1,140 Climbing FlightAware
15:26 38.6450 -120.9680 62° Northeast 515 593 24,700 1,080 Climbing FlightAware
15:27 38.6890 -120.8670 61° Northeast 524 603 25,300 960 Climbing FlightAware
15:28 38.7510 -120.7480 56° Northeast 538 619 26,100 1,080 Climbing FlightAware
15:28 38.8090 -120.6590 50° Northeast 541 623 26,800 1,200 Climbing FlightAware
15:29 38.8680 -120.5690 50° Northeast 539 620 27,600 1,260 Climbing FlightAware
15:29 38.9370 -120.4620 50° Northeast 540 621 28,500 1,020 Climbing FlightAware
15:30 38.9970 -120.3690 50° Northeast 548 631 29,000 1,080 Climbing FlightAware
15:31 39.0630 -120.2680 50° Northeast 545 627 29,900 660 Climbing FlightAware
15:31 39.1330 -120.1590 50° Northeast 548 631 30,000 60 Climbing FlightAware
15:32 39.1990 -120.0570 50° Northeast 553 636 30,000  Level FlightAware
15:33 39.2610 -119.9600 50° Northeast 556 640 30,000 240 Level FlightAware
15:33 39.3320 -119.8500 50° Northeast 551 634 30,400 780 Climbing FlightAware
15:34 39.4030 -119.7400 50° Northeast 549 632 31,200 1,140 Climbing FlightAware
15:35 39.4750 -119.6270 50° Northeast 547 629 32,100 1,140 Climbing FlightAware
15:36 39.5380 -119.5260 51° Northeast 544 626 32,800 660 Climbing FlightAware
15:36 39.6090 -119.4130 51° Northeast 549 632 33,100 660 Climbing FlightAware
15:37 39.6720 -119.3120 51° Northeast 548 631 33,800 900 Climbing FlightAware
15:38 39.7400 -119.2040 51° Northeast 546 628 34,400 720 Climbing FlightAware
15:38 39.8120 -119.0880 51° Northeast 547 629 34,900 360 Climbing FlightAware
15:39 39.8760 -118.9830 52° Northeast 548 631 35,000 60 Climbing FlightAware
15:40 39.9360 -118.8860 51° Northeast 547 629 35,000  Level FlightAware
15:41 40.0080 -118.7680 51° Northeast 545 627 35,000  Level FlightAware
15:41 40.0700 -118.6670 51° Northeast 545 627 35,000  Level FlightAware
15:42 40.1220 -118.5700 55° Northeast 537 618 35,000  Level FlightAware
15:43 40.1630 -118.4450 67° East 531 611 35,000  Level FlightAware
15:43 40.1990 -118.3130 70° East 528 608 35,000  Level FlightAware
15:44 40.2310 -118.1930 71° East 527 606 35,000  Level FlightAware
15:45 40.2590 -118.0930 70° East 527 606 35,000  Level FlightAware
15:45 40.2930 -117.9700 70° East 527 606 35,000  Level FlightAware
15:46 40.3180 -117.8810 70° East 527 606 35,000  Level FlightAware
15:47 40.3610 -117.7250 70° East 527 606 35,000  Level FlightAware
15:48 40.3950 -117.6000 70° East 527 606 35,000  Level FlightAware
15:48 40.4210 -117.5080 70° East 527 606 35,000  Level FlightAware
15:49 40.4460 -117.4160 70° East 527 606 35,000  Level FlightAware
15:50 40.4800 -117.2930 70° East 527 606 35,000  Level FlightAware
15:50 40.5060 -117.2010 70° East 527 606 35,000  Level FlightAware
15:51 40.5410 -117.0750 70° East 527 606 35,000  Level FlightAware
15:52 40.5670 -116.9800 70° East 527 606 35,000  Level FlightAware
15:52 40.5840 -116.9190 70° East 527 606 35,000  Level FlightAware
15:53 40.6180 -116.7950 70° East 527 606 35,000  Level FlightAware
15:54 40.6600 -116.6410 70° East 527 606 35,000  Level FlightAware
15:55 40.8314 -116.2486 70° East 525 604 35,000  Level Salt Lake Center
15:56 40.8967 -116.0822 63° Northeast 529 609 35,000  Level Salt Lake Center
16:01 41.2567 -115.1210 63° Northeast 534 615 35,000  Level FlightAware ADS-B
16:02 41.2898 -115.0320 64° Northeast 534 615 35,000  Level FlightAware ADS-B
16:02 41.3224 -114.9440 64° Northeast 535 616 35,000  Level FlightAware ADS-B
16:03 41.3555 -114.8530 64° Northeast 535 616 35,000  Level FlightAware ADS-B
16:04 41.3934 -114.7500 64° Northeast 536 617 35,000  Level FlightAware ADS-B
16:04 41.4365 -114.6320 64° Northeast 537 618 35,000  Level FlightAware ADS-B
16:05 41.4762 -114.5220 64° Northeast 536 617 35,000  Level FlightAware ADS-B
16:05 41.5099 -114.4290 64° Northeast 537 618 35,000  Level FlightAware ADS-B
16:06 41.5424 -114.3390 64° Northeast 537 618 35,000  Level FlightAware ADS-B
16:06 41.5747 -114.2490 64° Northeast 538 619 35,000  Level FlightAware ADS-B
16:07 41.6071 -114.1590 64° Northeast 537 618 35,000  Level FlightAware ADS-B
16:07 41.6462 -114.0490 65° Northeast 537 618 35,000  Level FlightAware ADS-B
16:08 41.6786 -113.9580 64° Northeast 538 619 35,000  Level FlightAware ADS-B
16:09 41.7146 -113.8570 64° Northeast 538 619 35,000  Level FlightAware ADS-B
16:09 41.7529 -113.7480 65° Northeast 539 620 35,000  Level FlightAware ADS-B
16:10 41.7975 -113.6220 65° Northeast 539 620 35,000  Level FlightAware ADS-B
16:11 41.8450 -113.4860 65° Northeast 538 619 35,000  Level FlightAware ADS-B
16:11 41.8770 -113.3940 65° Northeast 537 618 35,000  Level FlightAware
16:11 41.8952 -113.3420 65° Northeast 537 618 35,000  Level FlightAware ADS-B
16:12 41.9507 -113.1820 65° Northeast 536 617 35,000  Level FlightAware ADS-B
16:13 41.9885 -113.0720 65° Northeast 534 615 35,000  Level FlightAware ADS-B
16:13 42.0207 -112.9790 65° Northeast 535 616 35,000  Level FlightAware ADS-B
16:14 42.0621 -112.8570 65° Northeast 536 617 35,000  Level FlightAware ADS-B
16:15 42.0940 -112.7640 65° Northeast 535 616 35,000  Level FlightAware
16:15 42.1370 -112.6400 65° Northeast 535 616 35,000  Level FlightAware
16:17 42.2340 -112.3480 66° East 535 616 35,000  Level FlightAware
16:17 42.2690 -112.2420 66° East 534 615 35,000  Level FlightAware
16:18 42.3110 -112.1100 67° East 534 615 35,000  Level FlightAware
16:19 42.3337 -112.0410 66° East 535 616 35,000  Level FlightAware ADS-B
16:19 42.3654 -111.9430 66° East 534 615 35,000  Level FlightAware ADS-B
16:20 42.3950 -111.8510 66° East 535 616 35,000  Level FlightAware ADS-B
16:21 42.4734 -111.6060 66° East 536 617 35,000  Level FlightAware ADS-B
16:21 42.5058 -111.5050 66° East 534 615 35,000  Level FlightAware ADS-B
16:23 42.5810 -111.2710 66° East 534 615 35,000  Level FlightAware
16:24 42.6417 -111.0711 66° East 532 612 35,000  Level Salt Lake Center
16:25 42.6978 -110.8953 66° East 533 613 35,000  Level Salt Lake Center
16:26 42.7642 -110.6775 67° East 532 612 35,000  Level Salt Lake Center
16:27 42.8186 -110.4997 67° East 531 611 35,000  Level Salt Lake Center
16:28 42.8825 -110.2931 67° East 531 611 35,000  Level Salt Lake Center
16:29 42.9356 -110.1142 68° East 532 612 35,000  Level Salt Lake Center
16:30 42.9894 -109.9364 67° East 532 612 35,000  Level Salt Lake Center
16:31 43.0442 -109.7506 68° East 535 616 35,000  Level Salt Lake Center
16:32 43.1108 -109.5261 68° East 534 615 35,000  Level Salt Lake Center
16:33 43.1661 -109.3394 68° East 533 613 35,000  Level Salt Lake Center
16:34 43.2206 -109.1514 68° East 532 612 35,000  Level Salt Lake Center
16:35 43.2747 -108.9625 68° East 534 615 35,000  Level Salt Lake Center
16:36 43.3286 -108.7725 69° East 536 617 35,000  Level Salt Lake Center
16:37 43.3936 -108.5486 68° East 531 611 35,000  Level Salt Lake Center
16:38 43.4458 -108.3594 69° East 533 613 35,000  Level Salt Lake Center
16:39 43.5000 -108.1719 68° East 531 611 35,000  Level Salt Lake Center
16:40 43.5558 -107.9833 68° East 534 615 35,000  Level Salt Lake Center
16:42 43.6119 -107.7950 68° East 535 616 35,000  Level Salt Lake Center
16:43 43.6675 -107.6061 68° East 535 616 35,000  Level Salt Lake Center
16:44 43.7331 -107.3783 68° East 536 617 35,000  Level Salt Lake Center
16:45 43.7858 -107.1908 69° East 530 610 35,000  Level Salt Lake Center
16:46 43.8394 -107.0003 69° East 536 617 35,000  Level Salt Lake Center
16:47 43.8989 -106.7922 68° East 533 613 35,000  Level Salt Lake Center
16:48 43.9511 -106.6072 69° East 534 615 35,000  Level Salt Lake Center
16:49 44.0006 -106.3817 73° East 538 619 35,000  Level Salt Lake Center
16:50 44.0039 -106.1761 89° East 537 618 35,000  Level Salt Lake Center
16:51 44.0064 -105.9892 89° East 535 616 35,000  Level Salt Lake Center
16:52 44.0033 -105.7289 91° East 531 611 35,000  Level Denver Center
16:53 44.0050 -105.5311 89° East 532 612 35,000  Level Denver Center
16:54 44.0044 -105.3008 90° East 532 612 35,000  Level Denver Center
16:56 44.0033 -104.9064 90° East 534 615 35,000  Level Salt Lake Center
16:57 44.0017 -104.7089 91° East 533 613 35,000  Level Salt Lake Center
16:58 44.0011 -104.4781 90° East 534 615 35,000  Level Salt Lake Center
16:59 43.9983 -104.2811 91° East 532 612 35,000  Level Salt Lake Center
17:00 43.9958 -104.0844 91° East 531 611 35,000  Level Salt Lake Center
17:01 43.9925 -103.8247 91° East 532 612 35,000  Level Denver Center
17:02 43.9878 -103.6308 92° East 527 606 35,000  Level Denver Center
17:03 43.9847 -103.4025 91° East 530 610 35,000  Level Denver Center
17:04 43.9828 -103.2122 91° East 519 597 35,000  Level Denver Center
17:05 43.9836 -102.9847 90° East 526 605 35,000  Level Denver Center
17:06 44.0114 -102.7847 79° East 524 603 35,000  Level Denver Center
17:08 44.0381 -102.5911 79° East 515 593 35,000  Level Denver Center
17:09 44.0636 -102.3942 80° East 517 595 35,000  Level Denver Center
17:10 44.0931 -102.2003 78° East 514 592 35,000  Level Denver Center
17:11 44.1228 -101.9644 80° East 517 595 35,000  Level Denver Center
17:12 44.1481 -101.7697 80° East 514 592 35,000  Level Denver Center
17:13 44.1719 -101.5717 80° East 518 596 35,000  Level Denver Center
17:14 44.1978 -101.3778 79° East 514 592 35,000  Level Denver Center
17:15 44.2236 -101.1847 79° East 510 587 35,000  Level Denver Center
17:16 44.2475 -100.9897 80° East 512 589 35,000  Level Denver Center
17:17 44.2783 -100.7561 79° East 512 589 35,000  Level Denver Center
17:18 44.3092 -100.5269 79° East 512 589 35,000  Level Minneapolis Center
17:19 44.3331 -100.3328 80° East 512 589 35,000  Level Minneapolis Center
17:20 44.3567 -100.1386 80° East 510 587 35,000  Level Minneapolis Center
17:21 44.3839 -99.9061 81° East 510 587 35,000  Level Minneapolis Center
17:22 44.4072 -99.7125 80° East 510 587 35,000  Level Minneapolis Center
17:23 44.4292 -99.5186 81° East 510 587 35,000  Level Minneapolis Center
17:24 44.4533 -99.3225 80° East 512 589 35,000  Level Minneapolis Center
17:25 44.4731 -99.1286 82° East 510 587 35,000  Level Minneapolis Center
17:31 44.5930 -97.9920 82° East 512 589 35,000  Level FlightAware
17:32 44.6070 -97.7750 85° East 513 590 35,000  Level FlightAware
17:33 44.6133 -97.6447 86° East 514 592 35,000  Level FlightAware ADS-B
17:33 44.6185 -97.5437 86° East 515 593 35,000  Level FlightAware ADS-B
17:34 44.6249 -97.4165 86° East 514 592 35,000  Level FlightAware ADS-B
17:35 44.6326 -97.2593 86° East 514 592 35,000  Level FlightAware ADS-B
17:35 44.6393 -97.1199 86° East 512 589 35,000  Level FlightAware ADS-B
17:36 44.6480 -96.9240 86° East 512 589 35,000  Level FlightAware
17:37 44.6540 -96.7990 86° East 511 588 35,000  Level FlightAware
17:38 44.6600 -96.6700 86° East 510 587 35,000  Level FlightAware
17:38 44.6660 -96.5240 87° East 509 586 35,000  Level FlightAware
17:39 44.6710 -96.3920 87° East 509 586 35,000  Level FlightAware
17:40 44.6770 -96.2600 86° East 509 586 35,000  Level FlightAware
17:40 44.6810 -96.1430 87° East 510 587 35,000  Level FlightAware
17:41 44.6870 -96.0090 86° East 510 587 35,000  Level FlightAware
17:42 44.6920 -95.8670 87° East 510 587 35,000  Level FlightAware
17:42 44.6960 -95.7390 87° East 510 587 35,000  Level FlightAware
17:43 44.7020 -95.5850 87° East 510 587 35,000  Level FlightAware
17:44 44.7060 -95.4420 88° East 509 586 35,000  Level FlightAware
17:44 44.7100 -95.3150 87° East 508 585 35,000  Level FlightAware
17:45 44.7140 -95.2000 87° East 506 582 35,000  Level FlightAware
17:46 44.7180 -95.0640 88° East 505 581 35,000  Level FlightAware
17:46 44.7230 -94.9100 87° East 503 579 35,000  Level FlightAware
17:47 44.7250 -94.8090 88° East 502 578 35,000  Level FlightAware
17:48 44.7290 -94.6660 88° East 500 575 35,000  Level FlightAware
17:48 44.7320 -94.5380 88° East 498 573 35,000  Level FlightAware
17:49 44.7360 -94.3990 88° East 496 571 35,000  Level FlightAware
17:50 44.7390 -94.2590 88° East 494 568 35,000  Level FlightAware
17:50 44.7420 -94.1380 88° East 494 568 35,000  Level FlightAware
17:51 44.7450 -93.9910 88° East 493 567 35,000  Level FlightAware
17:52 44.7470 -93.8490 89° East 493 567 35,000  Level FlightAware
17:53 44.7500 -93.7230 88° East 494 568 35,000  Level FlightAware
17:54 44.7530 -93.5440 89° East 494 568 35,000  Level FlightAware
17:54 44.7540 -93.4170 89° East 493 567 35,000  Level FlightAware
17:55 44.7560 -93.2720 89° East 493 567 35,000  Level FlightAware
17:56 44.7560 -93.1480 90° East 497 572 35,000  Level FlightAware
17:56 44.7520 -93.0260 93° East 497 572 35,000  Level FlightAware
17:57 44.7480 -92.8840 92° East 497 572 35,000  Level FlightAware
17:58 44.7440 -92.7570 92° East 497 572 35,000  Level FlightAware
17:58 44.7410 -92.6590 92° East 496 571 35,000  Level FlightAware
17:59 44.7360 -92.5110 93° East 495 570 35,000  Level FlightAware
18:00 44.7320 -92.3760 92° East 494 568 35,000  Level FlightAware
18:00 44.7270 -92.2390 93° East 495 570 35,000  Level FlightAware
18:01 44.7230 -92.1190 93° East 495 570 35,000  Level FlightAware
18:02 44.7210 -92.0260 92° East 495 570 35,000  Level FlightAware
18:02 44.7110 -91.8340 94° East 494 568 35,000  Level FlightAware
18:03 44.7060 -91.6930 93° East 494 568 35,000  Level FlightAware
18:04 44.7000 -91.5640 94° East 493 567 35,000  Level FlightAware
18:05 44.6950 -91.4390 93° East 491 565 35,000  Level FlightAware
18:05 44.6890 -91.3010 93° East 489 563 35,000  Level FlightAware
18:06 44.6810 -91.1190 93° East 486 559 35,000  Level FlightAware
18:07 44.6750 -90.9980 94° East 485 558 35,000  Level FlightAware
18:07 44.6700 -90.8770 93° East 485 558 35,000  Level FlightAware
18:08 44.6640 -90.7500 94° East 485 558 35,000  Level FlightAware
18:09 44.6570 -90.6110 94° East 484 557 35,000  Level FlightAware
18:10 44.6500 -90.4850 94° East 484 557 35,000  Level FlightAware
18:10 44.6430 -90.3500 94° East 483 556 35,000  Level FlightAware
18:11 44.6350 -90.1980 94° East 483 556 35,000  Level FlightAware
18:12 44.6280 -90.0680 94° East 484 557 35,000  Level FlightAware
18:13 44.6200 -89.9300 95° East 483 556 35,000  Level FlightAware
18:13 44.6130 -89.8050 94° East 483 556 35,000  Level FlightAware
18:14 44.6060 -89.6810 94° East 483 556 35,000  Level FlightAware
18:15 44.5990 -89.5570 94° East 483 556 35,000  Level FlightAware
18:15 44.5900 -89.4180 95° East 483 556 35,000  Level FlightAware
18:16 44.5820 -89.2770 95° East 483 556 35,000  Level FlightAware
18:17 44.5740 -89.1510 95° East 483 556 35,000  Level FlightAware
18:17 44.5660 -89.0250 95° East 484 557 35,000  Level FlightAware
18:18 44.5560 -88.8680 95° East 483 556 35,000  Level FlightAware
18:19 44.5470 -88.7330 95° East 483 556 35,000  Level FlightAware
18:20 44.5370 -88.5870 95° East 481 554 35,000  Level FlightAware
18:20 44.5280 -88.4600 96° East 480 552 35,000  Level FlightAware
18:21 44.5200 -88.3440 95° East 480 552 35,000  Level FlightAware
18:22 44.5140 -88.2570 95° East 479 551 35,000  Level FlightAware
18:22 44.5010 -88.0770 96° East 481 554 35,000  Level FlightAware
18:23 44.4880 -87.9090 96° East 481 554 35,000 480 Level FlightAware
18:24 44.4810 -87.8050 95° East 476 548 35,800 660 Climbing FlightAware
18:25 44.4700 -87.6650 96° East 474 545 36,000 120 Climbing FlightAware
18:25 44.4600 -87.5380 96° East 473 544 36,000  Level FlightAware
18:26 44.4510 -87.4110 96° East 474 545 36,000  Level FlightAware
18:27 44.4390 -87.2700 97° East 476 548 36,000  Level FlightAware
18:28 44.4250 -87.0990 96° East 476 548 36,000 540 Level FlightAware
18:29 44.4130 -86.9500 96° East 471 542 37,000 600 Climbing FlightAware
18:29 44.4030 -86.8250 96° East 468 539 37,000  Level FlightAware
18:30 44.3930 -86.7130 97° East 471 542 37,000  Level FlightAware
18:31 44.3830 -86.5890 96° East 479 551 37,000  Level FlightAware
18:31 44.3700 -86.4420 97° East 482 555 37,000  Level FlightAware
18:32 44.3580 -86.3060 97° East 482 555 37,000  Level FlightAware
18:33 44.3470 -86.1880 97° East 482 555 37,000  Level FlightAware
18:34 44.3350 -86.0480 97° East 481 554 37,000  Level FlightAware
18:34 44.3230 -85.9170 97° East 480 552 37,000  Level FlightAware
18:35 44.3140 -85.8210 97° East 480 552 37,000  Level FlightAware
18:36 44.3010 -85.6860 98° East 475 547 37,000  Level FlightAware
18:36 44.2900 -85.5670 97° East 475 547 37,000  Level FlightAware
18:37 44.2790 -85.4550 98° East 476 548 37,000  Level FlightAware
18:38 44.2660 -85.3220 98° East 476 548 37,000  Level FlightAware
18:38 44.2540 -85.2010 98° East 476 548 37,000  Level FlightAware
18:39 44.2410 -85.0720 98° East 476 548 37,000  Level FlightAware
18:40 44.2280 -84.9390 98° East 476 548 37,000  Level FlightAware
18:40 44.2160 -84.8170 98° East 477 549 37,000  Level FlightAware
18:41 44.2020 -84.6840 98° East 478 550 37,000  Level FlightAware
18:42 44.1890 -84.5580 98° East 479 551 37,000  Level FlightAware
18:42 44.1760 -84.4380 99° East 476 548 37,000  Level FlightAware
18:43 44.1740 -84.2580 91° East 466 536 37,000  Level FlightAware
18:44 44.1800 -84.1420 86° East 460 529 37,000  Level FlightAware
18:44 44.1840 -84.0590 86° East 456 525 37,000  Level FlightAware
18:45 44.1890 -83.9470 86° East 454 522 37,000  Level FlightAware
18:46 44.1940 -83.8240 87° East 456 525 37,000  Level FlightAware
18:47 44.1990 -83.7000 87° East 458 527 37,000  Level FlightAware
18:47 44.2040 -83.5870 86° East 458 527 37,000  Level FlightAware
18:48 44.2080 -83.4730 87° East 459 528 37,000  Level FlightAware
18:48 44.2130 -83.3500 87° East 460 529 37,000  Level FlightAware
18:49 44.2180 -83.2200 87° East 458 527 37,000  Level FlightAware
18:50 44.2210 -83.1270 87° East 456 525 37,000  Level FlightAware
18:50 44.2260 -82.9980 87° East 454 522 37,000  Level FlightAware
18:51 44.2300 -82.8820 87° East 457 526 37,000  Level FlightAware
18:52 44.2340 -82.7490 88° East 458 527 37,000  Level FlightAware
18:53 44.2380 -82.6320 87° East 460 529 37,000  Level FlightAware
18:53 44.2410 -82.5140 88° East 461 531 37,000  Level FlightAware
18:54 44.2450 -82.3960 87° East 463 533 37,000  Level FlightAware
18:55 44.2430 -82.2420 91° East 467 537 37,000  Level FlightAware
18:55 44.2220 -82.1240 104° East 468 539 37,000  Level FlightAware
18:56 44.1980 -82.0140 107° East 468 539 37,000  Level FlightAware
18:57 44.1760 -81.9130 107° East 468 539 37,000  Level FlightAware
18:57 44.1480 -81.7850 107° East 466 536 37,000  Level FlightAware
18:58 44.1230 -81.6700 107° East 464 534 37,000  Level FlightAware
18:59 44.0950 -81.5410 107° East 468 539 37,000  Level FlightAware
19:00 44.0680 -81.4200 107° East 475 547 37,000  Level FlightAware
19:00 44.0400 -81.2910 107° East 482 555 37,000  Level FlightAware
19:01 44.0130 -81.1690 107° East 486 559 37,000  Level FlightAware
19:02 43.9790 -81.0190 107° East 489 563 37,000  Level FlightAware
19:02 43.9530 -80.9010 107° East 492 566 37,000  Level FlightAware
19:03 43.9250 -80.7790 108° East 493 567 37,000  Level FlightAware
19:04 43.8900 -80.6260 108° East 494 568 37,000  Level FlightAware
19:05 43.8610 -80.4960 107° East 494 568 37,000  Level FlightAware
19:05 43.8320 -80.3690 108° East 494 568 37,000  Level FlightAware
19:06 43.8080 -80.2690 108° East 495 570 37,000  Level FlightAware
19:07 43.7770 -80.1340 108° East 495 570 37,000  Level FlightAware
19:07 43.7520 -80.0260 108° East 497 572 37,000  Level FlightAware
19:08 43.7160 -79.8760 108° East 498 573 37,000  Level FlightAware
19:09 43.6880 -79.7570 108° East 497 572 37,000  Level FlightAware
19:10 43.6620 -79.6140 104° East 505 581 37,000  Level FlightAware
19:10 43.6620 -79.4930 90° East 512 589 37,000  Level FlightAware
19:11 43.6690 -79.3260 87° East 516 594 37,000  Level FlightAware
19:12 43.6750 -79.1750 87° East 519 597 37,000  Level FlightAware
19:12 43.6790 -79.0460 88° East 522 601 37,000  Level FlightAware
19:13 43.6830 -78.9280 87° East 524 603 37,000  Level FlightAware
19:14 43.6870 -78.7940 88° East 526 605 37,000  Level FlightAware
19:14 43.6910 -78.6490 88° East 527 606 37,000  Level FlightAware
19:15 43.6950 -78.5190 88° East 528 608 37,000  Level FlightAware
19:16 43.6990 -78.3770 88° East 530 610 37,000  Level FlightAware
19:16 43.7030 -78.2440 88° East 533 613 37,000  Level FlightAware
19:17 43.7060 -78.0930 88° East 536 617 37,000  Level FlightAware
19:18 43.7100 -77.9510 88° East 537 618 37,000  Level FlightAware
19:18 43.7130 -77.8110 88° East 538 619 37,000  Level FlightAware
19:19 43.7160 -77.6600 88° East 540 621 37,000  Level FlightAware
19:20 43.7180 -77.5510 89° East 541 623 37,000  Level FlightAware
19:20 43.7210 -77.3980 88° East 540 621 37,000  Level FlightAware
19:21 43.7240 -77.2550 88° East 541 623 37,000  Level FlightAware
19:22 43.7260 -77.1160 89° East 541 623 37,000  Level FlightAware
19:23 43.7280 -76.9590 89° East 540 621 37,000  Level FlightAware
19:23 43.7300 -76.8180 89° East 535 616 37,000  Level FlightAware
19:24 43.7020 -76.6950 107° East 500 575 37,000  Level FlightAware
19:25 43.6380 -76.5940 131° Southeast 475 547 37,000  Level FlightAware
19:25 43.5730 -76.5080 136° Southeast 473 544 37,000  Level FlightAware
19:26 43.5040 -76.4180 137° Southeast 472 543 37,000  Level FlightAware
19:27 43.4410 -76.3350 136° Southeast 473 544 37,000  Level FlightAware
19:28 43.3710 -76.2430 136° Southeast 473 544 37,000  Level FlightAware
19:28 43.3140 -76.1680 136° Southeast 473 544 37,000  Level FlightAware
19:29 43.2440 -76.0770 137° Southeast 472 543 37,000  Level FlightAware
19:30 43.1750 -75.9870 136° Southeast 472 543 37,000  Level FlightAware
19:30 43.1090 -75.9020 137° Southeast 470 541 37,000  Level FlightAware
19:31 43.0400 -75.8130 137° Southeast 468 539 37,000  Level FlightAware
19:32 42.9770 -75.7310 136° Southeast 467 537 37,000 -120 Level FlightAware
19:32 42.9080 -75.6430 137° Southeast 464 534 36,900 -720 Descending FlightAware
19:33 42.8460 -75.5640 137° Southeast 469 540 36,000 -1,500 Descending FlightAware
19:34 42.7800 -75.4800 137° Southeast 481 554 34,900 -1,380 Descending FlightAware
19:34 42.7100 -75.3900 137° Southeast 480 552 34,100 -1,200 Descending FlightAware
19:35 42.6380 -75.2990 137° Southeast 481 554 33,200 -1,260 Descending FlightAware
19:36 42.5830 -75.2290 137° Southeast 486 559 32,500 -1,320 Descending FlightAware
19:36 42.5130 -75.1410 137° Southeast 488 562 31,600 -1,380 Descending FlightAware
19:37 42.4490 -75.0610 137° Southeast 30,800 -1,380 Descending FlightAware
19:38 42.3610 -74.9500 137° Southeast 488 562 29,500 -1,560 Descending FlightAware
19:39 42.2720 -74.8390 137° Southeast 492 566 28,200 -1,020 Descending FlightAware
19:40 42.2110 -74.7630 137° Southeast 501 577 28,000 -180 Descending FlightAware
19:40 42.1330 -74.6650 137° Southeast 506 582 28,000  Level FlightAware
19:41 42.0580 -74.5740 138° Southeast 503 579 28,000  Level FlightAware
19:42 41.9830 -74.4770 136° Southeast 512 589 28,000  Level FlightAware
19:42 41.9200 -74.3560 125° Southeast 521 600 28,000 -120 Level FlightAware
19:43 41.8620 -74.2560 128° Southeast 505 581 27,900 -840 Descending FlightAware
19:44 41.7719 -74.1793 148° Southeast 485 558 26,800 -1,500 Descending FlightAware ADS-B
19:44 41.7344 -74.1636 163° South 482 555 26,300 -1,200 Descending FlightAware ADS-B
19:45 41.6580 -74.1413 168° South 477 549 25,800 -1,620 Descending FlightAware ADS-B
19:45 41.5828 -74.1202 168° South 469 540 24,400 -2,280 Descending FlightAware ADS-B
19:46 41.5184 -74.1020 168° South 469 540 23,300 -2,760 Descending FlightAware ADS-B
19:46 41.4462 -74.0814 168° South 467 537 21,500 -3,240 Descending FlightAware ADS-B
19:47 41.4188 -74.0777 174° South 462 532 20,800 -3,180 Descending FlightAware ADS-B
19:47 41.4100 -74.0778 180° South 460 529 20,600 -1,800 Descending FlightAware ADS-B
19:47 41.3828 -74.0824 187° South 452 520 20,300 -1,320 Descending FlightAware ADS-B
19:47 41.3706 -74.0867 195° South 447 514 20,200 -600 Descending FlightAware ADS-B
19:47 41.3422 -74.1022 202° Southwest 440 506 20,100 -300 Descending FlightAware ADS-B
19:48 41.2853 -74.1486 212° Southwest 438 504 20,000 -120 Descending FlightAware ADS-B
19:48 41.2458 -74.1777 209° Southwest 443 510 20,000  Level FlightAware ADS-B
19:48 41.2262 -74.1887 203° Southwest 444 511 20,000  Level FlightAware ADS-B
19:49 41.2061 -74.1993 202° Southwest 446 513 20,000  Level FlightAware ADS-B
19:49 41.1677 -74.2194 202° Southwest 439 505 20,000  Level FlightAware ADS-B
19:49 41.1386 -74.2347 202° Southwest 428 493 20,000  Level FlightAware ADS-B
19:49 41.1124 -74.2485 202° Southwest 412 474 20,000 -240 Level FlightAware ADS-B
19:50 41.0834 -74.2636 201° Southwest 394 453 19,900 -960 Descending FlightAware ADS-B
19:50 41.0579 -74.2769 201° Southwest 385 443 19,500 -1,320 Descending FlightAware ADS-B
19:50 41.0281 -74.2924 201° Southwest 375 432 19,200 -1,020 Descending FlightAware ADS-B
19:50 41.0073 -74.3032 201° Southwest 368 423 19,000 -360 Descending FlightAware ADS-B
19:51 40.9736 -74.3201 201° Southwest 365 420 19,000  Level FlightAware ADS-B
19:51 40.9542 -74.3257 192° South 367 422 19,000  Level FlightAware ADS-B
19:51 40.9510 -74.3262 187° South 369 425 19,000  Level FlightAware ADS-B
19:51 40.9332 -74.3264 180° South 371 427 19,000  Level FlightAware ADS-B
19:51 40.9286 -74.3258 174° South 372 428 19,000  Level FlightAware ADS-B
19:51 40.9188 -74.3236 170° South 374 430 19,000  Level FlightAware ADS-B
19:51 40.9082 -74.3199 165° South 376 433 19,000  Level FlightAware ADS-B
19:52 40.8960 -74.3137 159° South 380 437 19,000  Level FlightAware ADS-B
19:52 40.8840 -74.3054 152° Southeast 381 438 19,000  Level FlightAware ADS-B
19:52 40.8693 -74.2912 144° Southeast 379 436 19,000  Level FlightAware ADS-B
19:52 40.8593 -74.2780 135° Southeast 373 429 19,000  Level FlightAware ADS-B
19:52 40.8507 -74.2631 127° Southeast 368 423 19,000  Level FlightAware ADS-B
19:52 40.8449 -74.2503 121° Southeast 365 420 19,000  Level FlightAware ADS-B
19:52 40.8438 -74.2476 118° Southeast 365 420 19,000  Level FlightAware ADS-B
19:53 40.8332 -74.2200 117° Southeast 362 417 19,000  Level FlightAware ADS-B
19:53 40.8318 -74.2170 122° Southeast 362 417 19,000 -720 Level FlightAware ADS-B
19:53 40.8237 -74.2025 126° Southeast 359 413 18,900 -600 Descending FlightAware ADS-B
19:53 40.8213 -74.1991 133° Southeast 359 413 18,900  Level FlightAware ADS-B
19:53 40.8178 -74.1945 135° Southeast 357 411 18,900 -1,140 Level FlightAware ADS-B
19:53 40.8078 -74.1832 139° Southeast 353 406 18,700 -1,320 Descending FlightAware ADS-B
19:53 40.7923 -74.1683 144° Southeast 351 404 18,500 -1,380 Descending FlightAware ADS-B
19:53 40.7657 -74.1437 145° Southeast 349 402 18,000 -1,560 Descending FlightAware ADS-B
19:54 40.7519 -74.1312 146° Southeast 347 399 17,700 -1,440 Descending FlightAware ADS-B
19:54 40.7263 -74.1077 145° Southeast 343 395 17,300 -1,500 Descending FlightAware ADS-B
19:54 40.6951 -74.0789 145° Southeast 339 390 16,600 -1,560 Descending FlightAware ADS-B
19:54 40.6864 -74.0708 145° Southeast 339 390 16,500 -1,980 Descending FlightAware ADS-B
19:55 40.6474 -74.0348 145° Southeast 332 382 15,400 -2,280 Descending FlightAware ADS-B
19:55 40.6102 -74.0009 145° Southeast 319 367 14,200 -1,920 Descending FlightAware ADS-B
19:56 40.5705 -73.9656 146° Southeast 316 364 13,400 -1,440 Descending FlightAware ADS-B
19:56 40.5545 -73.9512 146° Southeast 312 359 13,100 -1,620 Descending FlightAware ADS-B
19:56 40.5439 -73.9390 139° Southeast 308 354 12,800 -2,040 Descending FlightAware ADS-B
19:57 40.5362 -73.9271 130° Southeast 306 352 12,500 -2,520 Descending FlightAware ADS-B
19:57 40.5113 -73.8826 126° Southeast 304 350 11,200 -2,640 Descending FlightAware ADS-B
19:58 40.4864 -73.8377 126° Southeast 306 352 9,900 -2,580 Descending FlightAware ADS-B
19:58 40.4734 -73.8146 126° Southeast 302 348 9,300 -2,160 Descending FlightAware ADS-B
19:58 40.4606 -73.7914 126° Southeast 297 342 8,800 -1,440 Descending FlightAware ADS-B
19:58 40.4469 -73.7658 125° Southeast 294 338 8,500 -1,140 Descending FlightAware ADS-B
19:59 40.4352 -73.7437 125° Southeast 292 336 8,200 -1,200 Descending FlightAware ADS-B
19:59 40.4275 -73.7289 124° Southeast 294 338 8,000 -720 Descending FlightAware ADS-B
19:59 40.4218 -73.7158 120° Southeast 299 344 8,000  Level FlightAware ADS-B
19:59 40.4195 -73.7080 111° Southeast 300 345 8,000  Level FlightAware ADS-B
19:59 40.4180 -73.7002 104° East 300 345 8,000  Level FlightAware ADS-B
19:59 40.4164 -73.6862 99° East 299 344 8,000  Level FlightAware ADS-B
20:00 40.4139 -73.6530 96° East 296 341 8,000  Level FlightAware ADS-B
20:00 40.4140 -73.6347 90° East 293 337 8,000  Level FlightAware ADS-B
20:00 40.4197 -73.6123 72° East 291 335 8,000  Level FlightAware ADS-B
20:00 40.4262 -73.6010 53° Northeast 292 336 8,000  Level FlightAware ADS-B
20:00 40.4291 -73.5973 44° Northeast 292 336 8,000  Level FlightAware ADS-B
20:00 40.4434 -73.5819 39° Northeast 295 339 8,000  Level FlightAware ADS-B
20:01 40.4621 -73.5631 37° Northeast 295 339 8,000 -240 Level FlightAware ADS-B
20:01 40.4764 -73.5496 36° Northeast 294 338 7,900 -600 Descending FlightAware ADS-B
20:01 40.4848 -73.5430 31° Northeast 292 336 7,800 -1,200 Descending FlightAware ADS-B
20:01 40.5059 -73.5279 29° Northeast 291 335 7,400 -1,620 Descending FlightAware ADS-B
20:02 40.5460 -73.4990 29° Northeast 282 325 6,400 -1,860 Descending FlightAware
20:02 40.5760 -73.4780 28° Northeast 276 318 5,500 -1,440 Descending FlightAware
20:03 40.6070 -73.4560 28° Northeast 269 310 5,100 -660 Descending FlightAware
20:03 40.6390 -73.4330 29° Northeast 263 303 4,900 -180 Descending FlightAware
20:03 40.6490 -73.4250 31° Northeast 262 302 5,000 120 Climbing FlightAware
20:04 40.6760 -73.4060 28° Northeast 267 307 5,000  Level FlightAware
20:04 40.7070 -73.3840 28° Northeast 267 307 5,000  Level FlightAware
20:05 40.7390 -73.3610 29° Northeast 268 308 5,000  Level FlightAware
20:05 40.7680 -73.3400 29° Northeast 247 284 5,000  Level FlightAware
20:05 40.7800 -73.3330 24° Northeast 236 272 5,000 -540 Level FlightAware
20:06 40.7920 -73.3310 North 233 268 4,800 -900 Descending FlightAware
20:06 40.8160 -73.3510 328° Northwest 221 254 4,400 -840 Descending FlightAware
20:06 40.8220 -73.3660 298° West 215 247 4,200 -600 Descending FlightAware
20:07 40.8340 -73.3990 296° West 204 235 4,000 -240 Descending FlightAware
20:07 40.8440 -73.4300 293° West 180 207 4,000 -120 Level FlightAware
20:08 40.8540 -73.4570 296° West 182 209 3,900 -480 Descending FlightAware
20:08 40.8640 -73.4860 295° West 172 198 3,600 -600 Descending FlightAware
20:08 40.8660 -73.4980 282° West 174 200 3,500 -600 Descending FlightAware
20:09 40.8580 -73.5270 250° West 179 206 3,200 -720 Descending FlightAware
20:09 40.8470 -73.5510 239° Southwest 180 207 2,900 -720 Descending FlightAware
20:10 40.8340 -73.5730 232° Southwest 182 209 2,600 -540 Descending FlightAware
20:10 40.8170 -73.6000 230° Southwest 172 198 2,400 -420 Descending FlightAware
20:11 40.7950 -73.6350 230° Southwest 175 201 2,100 -360 Descending FlightAware
20:12 40.7750 -73.6530 214° Southwest 173 199 2,000 -120 Descending FlightAware
20:12 40.7610 -73.6650 213° Southwest 173 199 2,000  Level FlightAware
20:12 40.7420 -73.6790 209° Southwest 169 194 2,000 -240 Level FlightAware
20:13 40.7240 -73.6930 211° Southwest 168 193 1,800 -780 Descending FlightAware
20:13 40.7050 -73.7080 211° Southwest 152 175 1,300 -840 Descending FlightAware
20:14 40.6930 -73.7170 210° Southwest 144 166 1,100 -660 Descending FlightAware
20:14 40.6770 -73.7300 212° Southwest 139 160 800 -720 Descending FlightAware
20:15 40.6630 -73.7410 211° Southwest 139 160 500 -780 Descending FlightAware
20:15 40.6470 -73.7540 212° Southwest 135 155 100 -840 Descending FlightAware
20:15 40.6330 -73.7640 208° Southwest 84 97 -240 Descending FlightAware
20:16 40.6300 -73.7670 217° Southwest 27 31  Level FlightAware
20:16 40.6290 -73.7690 237° Southwest 17 20  Level FlightAware